(504971) = 2011 GP32

Discovered at Kitt Peak on 2011-04-01 by Spacewatch.

Orbit

Orbit type: Main Belt

Note: WebGL enabled browser required.

epoch2024-03-31.0
epoch JD2460400.5
perihelion date2019-12-31.86759
perihelion JD2458849.36759
argument of perihelion (°)353.72636
ascending node (°)199.22779
inclination (°)13.64828
eccentricity0.1304164
perihelion distance (AU)2.3578556
Tisserand w.r.t. Jupiter3.3
ΔV w.r.t. Earth (km/sec)10.5
semimajor axis (AU)2.7114766
mean anomaly (°)342.40801
mean daily motion (°/day)0.22074710
aphelion distance (AU)3.065
period (years)4.46
P-vector [x]-0.97353359
P-vector [y]-0.19808945
P-vector [z]-0.11398652
Q-vector [x]0.21492757
Q-vector [y]-0.96311407
Q-vector [z]-0.16191795
absolute magnitude17.18
phase slope0.15
uncertainty0
referenceMPEC 2024-E123
observations used152
oppositions9
arc length (days)5662
first opposition used2008
last opposition used2024
residual rms (arc-secs)0.74
perturbers coarse indicatorM-v
perturbers precise indicator003Ek
first observation date used2008-09-05.0
last observation date used2024-03-07.0
computer nameMPCLINUX
JD of orbit computation2458051.161560
perihelion JD uncertainty (days)9.6884E-05
argument of perihelion uncertainty (°)1.9225E-05
ascending node uncertainty (°)1.1747E-05
inclination uncertainty (°)4.3821E-06
eccentricity uncertainty 6.6436E-08
perihelion distance uncertainty (AU)2.0715E-07
Minimum Orbit Intersection Distances (in AU)
for orbit epoch: 2460400.5, reference: E2024-FB1
Mercury1.93461
Venus1.63915
Earth1.3576
Mars0.72973
Jupiter1.89132
Saturn6.18329
Uranus16.074
Neptune26.771

Observations

158 total observations over interval: 2008 09 05.38519 – 2024 03 07.351452
These data are available for download (format description).

Date (UT) J2000 RA J2000 Dec Magn Location Ref
2008 09 05.38519 00 46 03.19 +10 24 58.5 21.3 V 691 – Steward Observatory, Kitt Peak-Spacewatch MPS 592442
2008 09 05.40627 00 46 02.50 +10 24 50.7 21.1 V 691 – Steward Observatory, Kitt Peak-Spacewatch MPS 592442
2008 09 05.42391 00 46 01.92 +10 24 44.6 21.6 V 691 – Steward Observatory, Kitt Peak-Spacewatch MPS 592442
2011 04 01.41302 15 06 42.51 -12 06 41.5 20.5 V 691 – Steward Observatory, Kitt Peak-Spacewatch MPS 377482
2011 04 01.43079 15 06 42.22 -12 06 32.2 20.4 V 691 – Steward Observatory, Kitt Peak-Spacewatch MPS 377482
2011 04 01.44857 15 06 41.89 -12 06 21.9 20.6 V 691 – Steward Observatory, Kitt Peak-Spacewatch MPS 377482
2011 04 05.41839 15 05 29.13 -11 29 22.2 20.9 V 691 – Steward Observatory, Kitt Peak-Spacewatch MPS 377482
2011 04 05.43616 15 05 28.74 -11 29 12.3 20.5 V 691 – Steward Observatory, Kitt Peak-Spacewatch MPS 377482
2011 04 05.45395 15 05 28.28 -11 29 02.0 20.8 V 691 – Steward Observatory, Kitt Peak-Spacewatch MPS 377482
2011 04 13.41000 15 01 51.14 -10 09 26.7 20.1 V 691 – Steward Observatory, Kitt Peak-Spacewatch MPS 378878
2011 04 13.42778 15 01 50.55 -10 09 15.4 20.5 V 691 – Steward Observatory, Kitt Peak-Spacewatch MPS 378878
2011 04 13.44555 15 01 49.91 -10 09 04.3 20.6 V 691 – Steward Observatory, Kitt Peak-Spacewatch MPS 378878
2011 04 28.39754 14 51 54.471 -07 31 03.82 20.4 g F51 – Pan-STARRS 1, Haleakala MPS 381290
2011 04 28.41283 14 51 53.743 -07 30 54.15 20.4 g F51 – Pan-STARRS 1, Haleakala MPS 381290
2011 04 28.42915 14 51 52.956 -07 30 44.20 20.0 r F51 – Pan-STARRS 1, Haleakala MPS 381290
2015 01 18.52676 10 28 59.126 -08 06 38.53 20.8 w F51 – Pan-STARRS 1, Haleakala MPS 592442
2015 01 18.55135 10 28 58.715 -08 06 39.76 21.0 w F51 – Pan-STARRS 1, Haleakala MPS 592442
2015 01 18.56364 10 28 58.516 -08 06 40.47 21.1 w F51 – Pan-STARRS 1, Haleakala MPS 592442
2015 01 20.49372 10 28 28.173 -08 07 49.98 21.5 w F51 – Pan-STARRS 1, Haleakala MPS 592442
2015 01 20.50688 10 28 27.916 -08 07 50.00 21.1 w F51 – Pan-STARRS 1, Haleakala MPS 592442
2015 01 20.51999 10 28 27.662 -08 07 50.33 21.0 w F51 – Pan-STARRS 1, Haleakala MPS 592442
2015 01 20.53316 10 28 27.402 -08 07 50.63 20.9 w F51 – Pan-STARRS 1, Haleakala MPS 592442
2015 01 22.50466 10 27 50.427 -08 07 59.01 21.2 w F51 – Pan-STARRS 1, Haleakala MPS 592442
2015 01 22.51730 10 27 50.154 -08 07 58.76 21.4 w F51 – Pan-STARRS 1, Haleakala MPS 592442
2015 01 22.52988 10 27 49.876 -08 07 58.82 21.4 w F51 – Pan-STARRS 1, Haleakala MPS 592442
2015 01 22.54245 10 27 49.589 -08 07 58.59 21.2 w F51 – Pan-STARRS 1, Haleakala MPS 592442
2015 02 22.06615 10 08 52.82 -05 50 27.3 20.8 g W84 – Cerro Tololo-DECam MPS 994189
2015 02 22.27053 10 08 42.88 -05 48 42.5   W84 – Cerro Tololo-DECam MPS 994189
2015 02 22.33908 10 08 39.56 -05 48 07.0   W84 – Cerro Tololo-DECam MPS 994189
2015 03 18.35790 09 52 43.598 -01 43 28.38 20.6 w F51 – Pan-STARRS 1, Haleakala MPS 592442
2015 03 18.37088 09 52 43.207 -01 43 19.92 20.4 w F51 – Pan-STARRS 1, Haleakala MPS 592442
2015 03 18.38381 09 52 42.829 -01 43 11.56 20.4 w F51 – Pan-STARRS 1, Haleakala MPS 592442
2015 03 18.39673 09 52 42.443 -01 43 03.15 20.3 w F51 – Pan-STARRS 1, Haleakala MPS 592442
2015 03 19.35405 09 52 16.926 -01 32 43.73 20.9 w F51 – Pan-STARRS 1, Haleakala MPS 592442
2015 03 19.36699 09 52 16.561 -01 32 35.32 20.7 w F51 – Pan-STARRS 1, Haleakala MPS 592442
2015 03 19.37991 09 52 16.198 -01 32 26.94 20.5 w F51 – Pan-STARRS 1, Haleakala MPS 592442
2015 03 19.39289 09 52 15.823 -01 32 18.63 20.4 w F51 – Pan-STARRS 1, Haleakala MPS 592442
2015 03 25.21613 09 50 10.27 -00 30 38.7 20.2 V G96 – Mt. Lemmon Survey MPS 592442
2015 03 25.22069 09 50 10.14 -00 30 35.6 20.2 V G96 – Mt. Lemmon Survey MPS 592442
2015 03 25.23054 09 50 09.95 -00 30 29.4 20.5 V G96 – Mt. Lemmon Survey MPS 592442
2015 03 25.23514 09 50 09.86 -00 30 26.2 20.6 V G96 – Mt. Lemmon Survey MPS 592442
2017 09 19.53690 00 58 17.586 +09 37 16.20 21.9 w F51 – Pan-STARRS 1, Haleakala MPS 817046
2017 09 19.53755 00 58 17.546 +09 37 15.77 21.9 w F51 – Pan-STARRS 1, Haleakala MPS 817046
2017 09 19.55044 00 58 17.034 +09 37 10.21 22.0 w F51 – Pan-STARRS 1, Haleakala MPS 817046
2017 09 19.56255 00 58 16.521 +09 37 04.74 21.5 w F51 – Pan-STARRS 1, Haleakala MPS 817046
2017 09 19.56320 00 58 16.502 +09 37 04.35 21.6 w F51 – Pan-STARRS 1, Haleakala MPS 817046
2017 09 19.57527 00 58 16.006 +09 36 58.89 21.8 w F51 – Pan-STARRS 1, Haleakala MPS 817046
2017 09 19.57593 00 58 15.957 +09 36 58.57 21.9 w F51 – Pan-STARRS 1, Haleakala MPS 817046
2017 10 16.25612 00 38 40.76 +05 53 18.7 21.0 G G96 – Mt. Lemmon Survey MPS 839142
2017 10 16.26130 00 38 40.51 +05 53 15.8 21.2 G G96 – Mt. Lemmon Survey MPS 839142
2017 10 16.26649 00 38 40.31 +05 53 13.6 21.4 G G96 – Mt. Lemmon Survey MPS 839142
2017 10 16.27170 00 38 40.02 +05 53 10.8   G96 – Mt. Lemmon Survey MPS 839142
2017 10 24.23348 00 33 20.02 +04 47 01.7 21.2 G G96 – Mt. Lemmon Survey MPS 828222
2017 10 24.23870 00 33 19.77 +04 46 59.7 21.9 G G96 – Mt. Lemmon Survey MPS 828222
2017 10 24.24391 00 33 19.63 +04 46 56.7 21.5 G G96 – Mt. Lemmon Survey MPS 828222
2017 10 24.24910 00 33 19.40 +04 46 54.0 22.1 G G96 – Mt. Lemmon Survey MPS 828222
2019 02 04.32355 06 01 47.114 +04 07 33.69 21.1 w F51 – Pan-STARRS 1, Haleakala MPS 969734
2019 02 04.33728 06 01 46.824 +04 07 38.08 21.2 w F51 – Pan-STARRS 1, Haleakala MPS 969734
2019 02 04.35101 06 01 46.517 +04 07 42.33 21.0 w F51 – Pan-STARRS 1, Haleakala MPS 969734
2020 03 23.58882 15 42 19.025 -13 31 31.36 21.4 w F51 – Pan-STARRS 1, Haleakala MPS 1172159
2020 03 23.59993 15 42 19.139 -13 31 26.56 21.0 w F51 – Pan-STARRS 1, Haleakala MPS 1172159
2020 03 23.61102 15 42 19.250 -13 31 21.86 20.9 w F51 – Pan-STARRS 1, Haleakala MPS 1172159
2020 03 23.62214 15 42 19.358 -13 31 17.08 20.8 w F51 – Pan-STARRS 1, Haleakala MPS 1172159
2020 04 01.56275 15 42 54.093 -12 21 36.98 21.0 w F51 – Pan-STARRS 1, Haleakala MPS 1172159
2020 04 01.57522 15 42 53.998 -12 21 30.29 21.3 w F51 – Pan-STARRS 1, Haleakala MPS 1172159
2020 04 01.58768 15 42 53.948 -12 21 24.33 21.4 w F51 – Pan-STARRS 1, Haleakala MPS 1172159
2020 04 01.60013 15 42 53.847 -12 21 17.75 21.3 w F51 – Pan-STARRS 1, Haleakala MPS 1172159
2020 04 16.47120 15 38 49.35 -10 04 26.7 20.8 G G96 – Mt. Lemmon Survey MPS 1175388
2020 04 16.47666 15 38 49.20 -10 04 23.8 20.9 G G96 – Mt. Lemmon Survey MPS 1175388
2020 04 16.48211 15 38 49.01 -10 04 20.4 20.6 G G96 – Mt. Lemmon Survey MPS 1175388
2020 04 16.48755 15 38 48.86 -10 04 17.5 21.1 G G96 – Mt. Lemmon Survey MPS 1175388
2020 04 17.54189 15 38 18.502 -09 53 53.30 20.2 w F51 – Pan-STARRS 1, Haleakala MPS 1185192
2020 04 17.55463 15 38 18.084 -09 53 45.66 20.2 w F51 – Pan-STARRS 1, Haleakala MPS 1185192
2020 04 17.56730 15 38 17.686 -09 53 38.07 20.4 w F51 – Pan-STARRS 1, Haleakala MPS 1185192
2020 04 17.58003 15 38 17.280 -09 53 30.51 20.3 w F51 – Pan-STARRS 1, Haleakala MPS 1185192
2020 04 21.50352 15 36 10.500 -09 14 27.35 20.2 w F52 – Pan-STARRS 2, Haleakala MPS 1185192
2020 04 21.51593 15 36 10.042 -09 14 19.90 20.4 w F52 – Pan-STARRS 2, Haleakala MPS 1185192
2020 04 21.52835 15 36 09.576 -09 14 12.48 20.5 w F52 – Pan-STARRS 2, Haleakala MPS 1185192
2020 04 21.54075 15 36 09.115 -09 14 05.01 20.6 w F52 – Pan-STARRS 2, Haleakala MPS 1185192
2020 04 26.37048 15 33 07.32 -08 25 41.8 20.7 G G96 – Mt. Lemmon Survey MPS 1185192
2020 04 26.37565 15 33 07.09 -08 25 38.6 20.5 G G96 – Mt. Lemmon Survey MPS 1185192
2020 04 26.38082 15 33 06.88 -08 25 35.7 20.6 G G96 – Mt. Lemmon Survey MPS 1185192
2020 04 26.38599 15 33 06.66 -08 25 32.1 20.6 G G96 – Mt. Lemmon Survey MPS 1185192
2020 04 26.44840 15 33 04.293 -08 24 53.82 20.0 w F52 – Pan-STARRS 2, Haleakala MPS 1185192
2020 04 26.46035 15 33 03.781 -08 24 46.56 20.1 w F52 – Pan-STARRS 2, Haleakala MPS 1185192
2020 04 26.47226 15 33 03.274 -08 24 39.31 20.4 w F52 – Pan-STARRS 2, Haleakala MPS 1185192
2020 04 26.48417 15 33 02.768 -08 24 32.19 20.3 w F52 – Pan-STARRS 2, Haleakala MPS 1185192
2020 04 27.47128 15 32 22.565 -08 14 40.72 20.3 w F51 – Pan-STARRS 1, Haleakala MPS 1185192
2020 04 27.48288 15 32 22.054 -08 14 33.71 20.3 w F51 – Pan-STARRS 1, Haleakala MPS 1185192
